Location: Newark
(58.8333°N, 23.5833°E)
Time: 18:22:20
(UTC+00:00)

METEOR M2 - Pass Details

Date: 12 December 2019
Orbit: 819 x 827 km, 98.5° (Epoch: 20 January)

Event Time Altitude Azimuth Distance (km) Brightness Sun altitude
Exits shadow 19:01:03 21° 316° (NW) 1,797 ? -40.1°
Drops below altitude 10° 19:03:04 10° 331° (NNW) 2,431 ? -40.3°
Sets 19:05:39 0° 341° (NNW) 3,368 ? -40.7°
